Wisconsin Dells, Wisconsin, United States (53965)
Lat: 43.63N, Lon: 89.77W
Wx Zone: WIZ057
Local Info
Past Weather Observations for Monday, November 17, 2014

NOTE: This archive is for the closest National Weather Service station to Wisconsin Dells. Information may differ from the station used for current weather conditions.

Click here for Long-term Archive

Time Weather Temperature Dewpoint Humidity Pressure Winds Precip Visibility
23:55
Overcast
10°F / -12°C 5°F / -15°C 79% 29.89 in
(1012 mb)
W 12.7 mph
(W 20 kph)
- 10SM
23:35
Overcast
10°F / -12°C 5°F / -15°C 79% 29.89 in
(1012 mb)
W 12.7 mph
(W 20 kph)
- 10SM
23:15
Mostly Cloudy
10°F / -12°C 3°F / -16°C 72% 29.89 in
(1012 mb)
W 11.5 mph
(W 19 kph)
- 10SM
22:55
Partly Cloudy
10°F / -12°C 3°F / -16°C 72% 29.89 in
(1012 mb)
SSW 10.4 mph
(SSW 17 kph)
- 10SM
22:35
Mostly Cloudy
10°F / -12°C 3°F / -16°C 72% 29.89 in
(1012 mb)
SSW 9.2 mph
(SSW 15 kph)
- 10SM
22:15
Partly Cloudy
10°F / -12°C 3°F / -16°C 72% 29.89 in
(1012 mb)
W 10.4 mph
(W 17 kph)
- 10SM
21:55
Clear
10°F / -12°C 3°F / -16°C 72% 29.89 in
(1012 mb)
W 11.5 mph
(W 19 kph)
- 10SM
21:35
Partly Cloudy
10°F / -12°C 3°F / -16°C 72% 29.89 in
(1012 mb)
SSW 12.7 mph
(SSW 20 kph)
- 10SM
21:15
Mostly Cloudy
10°F / -12°C 3°F / -16°C 72% 29.89 in
(1012 mb)
SSW 10.4 mph
(SSW 17 kph)
- 10SM
20:55
Mostly Cloudy
10°F / -12°C 3°F / -16°C 72% 29.89 in
(1012 mb)
W 9.2 mph
(W 15 kph)
- 10SM
20:35
Clear
10°F / -12°C 1°F / -17°C 67% 29.89 in
(1012 mb)
W 9.2 mph
(W 15 kph)
- 10SM
20:15
Partly Cloudy
10°F / -12°C 1°F / -17°C 67% 29.89 in
(1012 mb)
WNW 11.5 mph
(WNW 19 kph)
- 10SM
19:55
Mostly Cloudy
10°F / -12°C 1°F / -17°C 67% 29.89 in
(1012 mb)
WNW 15 mph
(WNW 24 kph)
- 10SM
19:35
Overcast
10°F / -12°C 3°F / -16°C 72% 29.89 in
(1012 mb)
W 12.7 mph
(W 20 kph)
- 10SM
19:15
Overcast
10°F / -12°C 5°F / -15°C 79% 29.89 in
(1012 mb)
W 6.9 mph
(W 11 kph)
- 10SM
18:55
Overcast
Light Snow
10°F / -12°C 5°F / -15°C 79% 29.89 in
(1012 mb)
W 9.2 mph
(W 15 kph)
- 1 1/2SM
18:35
Overcast
Light Snow
10°F / -12°C 3°F / -16°C 72% 29.89 in
(1012 mb)
W 8.1 mph
(W 13 kph)
- 2SM
18:15
Overcast
10°F / -12°C 3°F / -16°C 72% 29.89 in
(1012 mb)
W 8.1 mph
(W 13 kph)
- 10SM
17:55
Mostly Cloudy
10°F / -12°C 1°F / -17°C 67% 29.89 in
(1012 mb)
W 6.9 mph
(W 11 kph)
- 10SM
17:35
Mostly Cloudy
10°F / -12°C 1°F / -17°C 67% 29.89 in
(1012 mb)
WNW 12.7 mph
(WNW 20 kph)
- 10SM
17:15
Overcast
12°F / -11°C 3°F / -16°C 67% 29.86 in
(1011 mb)
WNW 13.8 mph
(WNW 22 kph)
- 7SM
16:55
Overcast
12°F / -11°C 3°F / -16°C 67% 29.86 in
(1011 mb)
W 9.2 mph
(W 15 kph)
- 10SM
16:35
Overcast
12°F / -11°C 3°F / -16°C 67% 29.86 in
(1011 mb)
W 17.3 mph
(W 28 kph)
- 10SM
16:15
Overcast
12°F / -11°C 3°F / -16°C 67% 29.83 in
(1010 mb)
WNW 12.7 mph
(WNW 20 kph)
- 7SM
15:55
Overcast
12°F / -11°C 3°F / -16°C 67% 29.83 in
(1010 mb)
W 15 mph
(W 24 kph)
- 10SM
15:35
Overcast
12°F / -11°C 3°F / -16°C 67% 29.83 in
(1010 mb)
W 15 mph
(W 24 kph)
- 10SM
15:15
Overcast
12°F / -11°C 1°F / -17°C 62% 29.83 in
(1010 mb)
W 10.4 mph
(W 17 kph)
- 10SM
14:55
Overcast
12°F / -11°C 1°F / -17°C 62% 29.8 in
(1009 mb)
WNW 16.1 mph
(WNW 26 kph)
- 10SM
14:35
Overcast
14°F / -10°C 3°F / -16°C 62% 29.8 in
(1009 mb)
WNW 16.1 mph
(WNW 26 kph)
- 10SM
14:15
Overcast
12°F / -11°C 3°F / -16°C 67% 29.8 in
(1009 mb)
WNW 15 mph
(WNW 24 kph)
- 10SM
13:55
Overcast
14°F / -10°C 1°F / -17°C 57% 29.8 in
(1009 mb)
WNW 13.8 mph
(WNW 22 kph)
- 10SM
13:35
Mostly Cloudy
12°F / -11°C 3°F / -16°C 67% 29.77 in
(1008 mb)
W 12.7 mph
(W 20 kph)
- 10SM
13:15
Mostly Cloudy
14°F / -10°C 3°F / -16°C 62% 29.77 in
(1008 mb)
WNW 9.2 mph
(WNW 15 kph)
- 10SM
12:55
Overcast
Hazy
14°F / -10°C 3°F / -16°C 62% 29.77 in
(1008 mb)
W 16.1 mph
(W 26 kph)
- 5SM
12:35
Overcast
14°F / -10°C 1°F / -17°C 57% 29.77 in
(1008 mb)
W 11.5 mph
(W 19 kph)
- 10SM
12:15
Overcast
14°F / -10°C 3°F / -16°C 62% 29.77 in
(1008 mb)
W 15 mph
(W 24 kph)
- 7SM
11:55
Overcast
14°F / -10°C 3°F / -16°C 62% 29.77 in
(1008 mb)
W 12.7 mph
(W 20 kph)
- 7SM
11:35
Overcast
Hazy
14°F / -10°C 3°F / -16°C 62% 29.77 in
(1008 mb)
WNW 11.5 mph
(WNW 19 kph)
- 5SM
11:15
Overcast
14°F / -10°C 1°F / -17°C 57% 29.77 in
(1008 mb)
WNW 19.6 mph
(WNW 32 kph)
- 10SM
10:55
Overcast
14°F / -10°C 3°F / -16°C 62% 29.8 in
(1009 mb)
W 15 mph
(W 24 kph)
- 10SM
10:35
Mostly Cloudy
12°F / -11°C 1°F / -17°C 62% 29.8 in
(1009 mb)
WNW 12.7 mph
(WNW 20 kph)
- 10SM
10:15
Mostly Cloudy
12°F / -11°C 3°F / -16°C 67% 29.8 in
(1009 mb)
W 11.5 mph
(W 19 kph)
- 10SM
09:55
Mostly Cloudy
12°F / -11°C 3°F / -16°C 67% 29.8 in
(1009 mb)
NW 12.7 mph
(NW 20 kph)
- 10SM
09:35
Overcast
12°F / -11°C 5°F / -15°C 73% 29.8 in
(1009 mb)
WNW 16.1 mph
(WNW 26 kph)
- 10SM
09:15
Overcast
12°F / -11°C 5°F / -15°C 73% 29.8 in
(1009 mb)
NW 12.7 mph
(NW 20 kph)
- 10SM
08:55
Overcast
12°F / -11°C 5°F / -15°C 73% 29.8 in
(1009 mb)
WNW 11.5 mph
(WNW 19 kph)
- 10SM
08:35
Overcast
12°F / -11°C 5°F / -15°C 73% 29.8 in
(1009 mb)
W 8.1 mph
(W 13 kph)
- 10SM
08:15
Overcast
10°F / -12°C 5°F / -15°C 79% 29.8 in
(1009 mb)
W 8.1 mph
(W 13 kph)
- 10SM
07:55
Mostly Cloudy
Light Snow
10°F / -12°C 5°F / -15°C 79% 29.8 in
(1009 mb)
W 8.1 mph
(W 13 kph)
- 10SM
07:35
Partly Cloudy
10°F / -12°C 5°F / -15°C 79% 29.8 in
(1009 mb)
W 10.4 mph
(W 17 kph)
- 10SM
07:15
Clear
9°F / -13°C 5°F / -15°C 85% 29.8 in
(1009 mb)
W 10.4 mph
(W 17 kph)
- 10SM
06:55
Clear
9°F / -13°C 5°F / -15°C 85% 29.8 in
(1009 mb)
SSW 10.4 mph
(SSW 17 kph)
- 10SM
06:35
Clear
9°F / -13°C 5°F / -15°C 85% 29.8 in
(1009 mb)
SSW 8.1 mph
(SSW 13 kph)
- 10SM
06:15
Clear
9°F / -13°C 5°F / -15°C 85% 29.8 in
(1009 mb)
SSW 6.9 mph
(SSW 11 kph)
- 10SM
05:55
Clear
9°F / -13°C 5°F / -15°C 85% 29.8 in
(1009 mb)
SSW 9.2 mph
(SSW 15 kph)
- 10SM
05:35
Clear
10°F / -12°C 7°F / -14°C 85% 29.8 in
(1009 mb)
SSW 8.1 mph
(SSW 13 kph)
- 10SM
05:15
Partly Cloudy
9°F / -13°C 5°F / -15°C 85% 29.8 in
(1009 mb)
W 6.9 mph
(W 11 kph)
- 10SM
04:55
Clear
9°F / -13°C 5°F / -15°C 85% 29.8 in
(1009 mb)
SSW 5.8 mph
(SSW 9 kph)
- 10SM
04:35
Partly Cloudy
9°F / -13°C 5°F / -15°C 85% 29.8 in
(1009 mb)
W 6.9 mph
(W 11 kph)
- 10SM
04:15
Overcast
Light Snow
9°F / -13°C 5°F / -15°C 85% 29.8 in
(1009 mb)
SSW 6.9 mph
(SSW 11 kph)
- 10SM
03:55
Mostly Cloudy
Light Snow
9°F / -13°C 5°F / -15°C 85% 29.8 in
(1009 mb)
W 6.9 mph
(W 11 kph)
- 10SM
03:35
Clear
7°F / -14°C 3°F / -16°C 85% 29.83 in
(1010 mb)
SSW 5.8 mph
(SSW 9 kph)
- 10SM
03:15
Clear
7°F / -14°C 3°F / -16°C 85% 29.83 in
(1010 mb)
SW 5.8 mph
(SW 9 kph)
- 10SM
02:55
Clear
7°F / -14°C 3°F / -16°C 85% 29.83 in
(1010 mb)
SW 5.8 mph
(SW 9 kph)
- 10SM
02:35
Partly Cloudy
9°F / -13°C 3°F / -16°C 78% 29.83 in
(1010 mb)
SSW 5.8 mph
(SSW 9 kph)
- 10SM
02:15
Overcast
9°F / -13°C 5°F / -15°C 85% 29.83 in
(1010 mb)
W 6.9 mph
(W 11 kph)
- 10SM
01:55
Partly Cloudy
9°F / -13°C 3°F / -16°C 78% 29.83 in
(1010 mb)
W 5.8 mph
(W 9 kph)
- 10SM
01:35
Partly Cloudy
9°F / -13°C 3°F / -16°C 78% 29.83 in
(1010 mb)
SSW 6.9 mph
(SSW 11 kph)
- 10SM
01:15
Partly Cloudy
9°F / -13°C 3°F / -16°C 78% 29.83 in
(1010 mb)
SSW 5.8 mph
(SSW 9 kph)
- 10SM
00:55
Clear
9°F / -13°C 3°F / -16°C 78% 29.83 in
(1010 mb)
SSW 5.8 mph
(SSW 9 kph)
- 10SM
00:35
Clear
9°F / -13°C 3°F / -16°C 78% 29.83 in
(1010 mb)
SSW 6.9 mph
(SSW 11 kph)
- 10SM
00:15
Clear
9°F / -13°C 3°F / -16°C 78% 29.83 in
(1010 mb)
W 5.8 mph
(W 9 kph)
- 10SM
Time Weather Temperature Dewpoint Humidity Pressure Winds Precip Visibility


Weather for websites

WeatherForYou.com, LLC is not responsible for any damages or problems caused by this service. Current weather conditions are obtained from the closest station including government and personal stations which may have varying degrees of accuracy. Weather forecasts are derived from the NOAA NDFD. Like all things, this site belongs to Jesus Christ... He just trusts me to maintain it. If you have any questions or comments email webmaster@weatherforyou.com

Copyright © 2014, WeatherForYou.com LLC. All rights reserved.